Weather in Tlyanche-Tamak

Russia / Republic of Tatarstan     55°28′25″N   52°37′36″E
temp.,
°C
wind,
m/s
gust,
m/s
humid.,
%
clouds,
%
prec.,
mm/h
press.,
hPa
HPBL,
m
9 december, thu
thu900:00−2s51390100 0.0 1029373
03:00−3s41191100 0.0 1029296
06:00−4sse4992100 0.0 1029221
09:00−4sse51189100 0.0 1028302
12:00−3sse4985100 0.0 1027285
15:00−3sse51185100 0.0 1026352
18:00−4s3888100 0.0 1025198
21:00−3s3887100 0.0 1025259
10 december, fri
fri1000:00−3ssw3790100 0.2 1025300
03:00−4s2293100 0.3 102563
06:00−3wsw119899 1.1 102658
09:00−6nw249889 1.2 102773
12:00−6n479682 0.0 1028245
15:00−9n499210 0.0 1030239
18:00−11nne410895 0.0 1032257
21:00−12nne511895 0.0 1034286
11 december, sat
sat1100:00−13nne513885 0.0 1035315
03:00−14nne413885 0.0 1036320
06:00−14nne413885 0.0 1037305
09:00−14nne412865 0.0 1039305
12:00−12ne513855 0.0 1039314
15:00−12nne310895 0.0 1040208
18:00−13nne37925 0.0 1042134
21:00−13nne26925 0.0 1042112
12 december, sun
sun1200:00−13ne25905 0.0 104381
03:00−14nne23905 0.0 104452
06:00−14nne11935 0.0 104420
09:00−14ne11925 0.0 104519
12:00−11ne11865 0.0 104524
15:00−13ese11917 0.0 10459
18:00−13s11925 0.0 10459
21:00−13sse11935 0.0 10449
13 december, mon
mon1300:00−14sw11935 0.0 10449
03:00−13sw22895 0.0 104334
06:00−13w229136 0.0 104318
09:00−12wsw249063 0.0 104357
12:00−10sw248785 0.0 104184
15:00−11wsw24885 0.0 104157
18:00−12sw258819 0.0 104075
21:00−11sw3786100 0.0 104096